Location: UMBC
(39.2555°N, 76.7093°W)
Time: 15:03:15
(UTC+02:00)

Amateur Radio Satellites - All Passes

Search period start: 20 October 2014 14:33
Search period end: 21 October 2014 14:33
Location: UMBC, 39.2555°N, 76.7093°W

Satellite Date Start Highest point End Downlink Frequencies (MHz)
Time Altitude Azimuth
HO-68 20 Oct 15:07:07 15:12:55 26° 94° (E) 15:18:40 435.675 MHz FM
Saudisat 1A 20 Oct 15:30:20 15:34:42 69° 303° (WNW) 15:39:06 436.775 MHz
UKube-1 20 Oct 15:35:29 15:36:39 11° 91° (E) 15:37:49 145.840 MHz, 145.915 MHz
RS-15 20 Oct 15:39:48 15:50:33 55° 248° (WSW) 16:01:47 29.354 - 29.394 USB, Beacon 29.352 USB
PANSAT 20 Oct 15:55:57 15:56:42 10° 165° (SSE) 15:57:27 not established
Oscar 11 20 Oct 16:19:22 16:23:15 32° 97° (E) 16:27:07 145.825 FM, Beacon 2401.500 USB
MaSat-1 20 Oct 16:32:23 16:34:52 31° 60° (ENE) 16:37:08 437.345 MHz
HO-68 20 Oct 16:53:56 17:00:57 58° 291° (WNW) 17:07:56 435.675 MHz FM
ZACube-1 20 Oct 16:54:09 16:58:02 32° 97° (E) 17:01:48 437.345 MHz
UKube-1 20 Oct 17:08:53 17:13:13 62° 286° (WNW) 17:17:30 145.840 MHz, 145.915 MHz
Saudisat 1A 20 Oct 17:14:37 17:15:05 10° 322° (NW) 17:15:34 436.775 MHz
PANSAT 20 Oct 17:33:43 17:36:09 16° 178° (S) 17:38:34 not established
FUNcube-1 20 Oct 17:39:52 17:44:10 73° 284° (WNW) 17:48:21 145.950 - 145.970 MHz USB
KITSAT 1 20 Oct 17:41:07 17:44:28 13° 99° (E) 17:47:50 435.175 FM
Oscar 11 20 Oct 17:56:01 17:59:13 21° 293° (WNW) 18:02:25 145.825 FM, Beacon 2401.500 USB
ZACube-1 20 Oct 18:31:03 18:34:12 20° 293° (WNW) 18:37:18 437.345 MHz
Oscar 16 20 Oct 18:38:04 18:41:30 18° 63° (ENE) 18:44:57 437.025 USB, Beacon 2401.1428
HO-68 20 Oct 18:45:57 18:47:08 10° 310° (NW) 18:48:19 435.675 MHz FM
JAS-1B 20 Oct 18:55:37 19:00:16 23° 65° (ENE) 19:04:40 435.800 - 435.900 CW/SSB
ITAMSAT 1 20 Oct 18:56:10 18:57:03 10° 58° (ENE) 18:57:56 435.822 SSB
AO-Echo 20 Oct 19:13:24 19:16:39 18° 64° (ENE) 19:19:57 ?
PANSAT 20 Oct 19:13:44 19:15:37 13° 191° (S) 19:17:30 not established
Sapphire 20 Oct 19:20:46 19:24:41 20° 47° (NE) 19:28:35 437.095 MHz 1200 baud AX-25 AFSK
KITSAT 1 20 Oct 19:30:28 19:38:31 77° 116° (ESE) 19:46:36 435.175 FM
Oscar 19 20 Oct 19:30:28 19:35:29 54° 72° (ENE) 19:40:31 437.125 CW, 437.150 USB
AO-27 20 Oct 19:36:32 19:40:49 27° 66° (ENE) 19:45:06 436.795 MHz FM
PCSat 20 Oct 19:43:23 19:48:10 30° 52° (NE) 19:52:54 145.825 MHz
SO-50 20 Oct 20:02:08 20:06:20 42° 115° (ESE) 20:10:40 436.795 FM
Oscar 16 20 Oct 20:15:21 20:20:24 55° 260° (W) 20:25:29 437.025 USB, Beacon 2401.1428
Gurwin Techsat 1B 20 Oct 20:21:49 20:26:36 35° 69° (ENE) 20:31:23 435.225 FM
Uribyol 2 20 Oct 20:25:43 20:30:56 80° 75° (ENE) 20:36:11 436.500 FM
ITAMSAT 1 20 Oct 20:30:28 20:35:40 83° 75° (ENE) 20:40:55 435.822 SSB
TMSAT-1 20 Oct 20:36:19 20:41:05 35° 69° (ENE) 20:45:52 436.925 FM
JAS-1B 20 Oct 20:44:44 20:50:44 45° 260° (W) 20:56:14 435.800 - 435.900 CW/SSB
ISS 20 Oct 20:50:09 20:53:29 81° 140° (SE) 20:56:49 145.800 FM
AO-Echo 20 Oct 20:50:21 20:54:59 49° 261° (W) 20:59:48 ?
Sapphire 20 Oct 21:03:12 21:08:36 66° 245° (WSW) 21:13:57 437.095 MHz 1200 baud AX-25 AFSK
Oscar 19 20 Oct 21:11:52 21:15:08 17° 268° (W) 21:18:25 437.125 CW, 437.150 USB
AO-27 20 Oct 21:15:22 21:20:08 36° 262° (W) 21:24:56 436.795 MHz FM
PCSat 20 Oct 21:26:39 21:31:37 38° 250° (WSW) 21:36:33 145.825 MHz
KITSAT 1 20 Oct 21:28:04 21:34:43 27° 317° (NW) 21:41:25 435.175 FM
AO-7 20 Oct 21:38:04 21:45:47 46° 63° (ENE) 21:53:30 29.400 - 29.500 MHz
SO-50 20 Oct 21:43:28 21:47:04 23° 314° (NW) 21:50:45 436.795 FM
UOSAT-12 20 Oct 21:52:10 21:56:37 50° 117° (ESE) 22:01:10 437.025 FM, 437.400 FM
Gurwin Techsat 1B 20 Oct 22:02:06 22:06:34 27° 265° (W) 22:11:04 435.225 FM
Uribyol 2 20 Oct 22:09:29 22:10:58 11° 271° (W) 22:12:28 436.500 FM
ITAMSAT 1 20 Oct 22:14:45 22:15:46 11° 271° (W) 22:16:47 435.822 SSB
TMSAT-1 20 Oct 22:16:34 22:21:01 27° 265° (W) 22:25:30 436.925 FM
Saudisat 1A 20 Oct 22:21:40 22:21:57 10° 38° (NE) 22:22:13 436.775 MHz
Oscar 10/S400 20 Oct 22:25:14 22:43:21 57° 165° (SSE) 23:34:15 145.825 - 145.975 CW/USB, Beacon 145.810 USB
ISS 20 Oct 22:28:08 22:30:32 18° 338° (NNW) 22:32:56 145.800 FM
JAS-2 20 Oct 22:28:51 22:32:37 18° 58° (ENE) 22:36:38 435.800 - 435.900 CW/SSB, 435.910 FM
Uosat F 20 Oct 22:30:30 22:35:27 65° 73° (ENE) 22:40:27 435.120 FM
AO-7 20 Oct 23:30:59 23:38:34 40° 261° (W) 23:46:13 29.400 - 29.500 MHz
UOSAT-12 20 Oct 23:33:30 23:37:03 21° 315° (NW) 23:40:39 437.025 FM, 437.400 FM
Hamsat 20 Oct 23:39:04 23:42:58 37° 72° (ENE) 23:46:51 145.90 MHz
OPAL 20 Oct 23:56:21 00:01:02 40° 101° (E) 00:05:39 ?
Saudisat 1A 20 Oct 23:57:56 00:02:21 68° 57° (ENE) 00:06:44 436.775 MHz
JAS-2 21 Oct 00:11:12 00:16:49 71° 259° (WSW) 00:23:13 435.800 - 435.900 CW/SSB, 435.910 FM
Uosat F 21 Oct 00:12:18 00:14:40 13° 269° (W) 00:17:03 435.120 FM
SO-67 21 Oct 01:02:17 01:05:27 37° 74° (ENE) 01:08:39 435.3500 MHz FM
Hamsat 21 Oct 01:16:17 01:19:02 17° 267° (W) 01:21:47 145.90 MHz
KITSAT 1 21 Oct 01:32:15 01:33:51 11° 19° (NNE) 01:35:28 435.175 FM
STRAND 1 21 Oct 01:32:55 01:37:49 42° 99° (E) 01:42:40 ?
OPAL 21 Oct 01:35:49 01:39:39 23° 297° (WNW) 01:43:27 ?
HO-68 21 Oct 01:36:15 01:40:52 19° 56° (NE) 01:45:31 435.675 MHz FM
Saudisat 1A 21 Oct 01:39:51 01:41:20 12° 252° (WSW) 01:42:48 436.775 MHz
ISS 21 Oct 01:44:00 01:46:09 16° 19° (NNE) 01:48:18 145.800 FM
SO-67 21 Oct 02:37:46 02:38:36 11° 269° (W) 02:39:26 435.3500 MHz FM
STRAND 1 21 Oct 03:12:45 03:16:42 23° 295° (WNW) 03:20:39 ?
Oscar 11 21 Oct 03:13:46 03:17:13 23° 68° (ENE) 03:20:39 145.825 FM, Beacon 2401.500 USB
ISS 21 Oct 03:19:59 03:23:20 75° 37° (NE) 03:26:39 145.800 FM
HO-68 21 Oct 03:20:31 03:27:41 85° 254° (WSW) 03:34:54 435.675 MHz FM
KITSAT 1 21 Oct 03:25:13 03:32:21 33° 46° (NE) 03:39:26 435.175 FM
ZACube-1 21 Oct 03:49:32 03:53:20 26° 69° (ENE) 03:57:06 437.345 MHz
AO-40 21 Oct 03:50:25 05:39:29 27° 220° (SW) 09:18:43 Beacon 2401.320
RS-15 21 Oct 03:52:08 04:00:46 28° 103° (ESE) 04:09:16 29.354 - 29.394 USB, Beacon 29.352 USB
UKube-1 21 Oct 04:02:58 04:07:18 82° 257° (WSW) 04:11:41 145.840 MHz, 145.915 MHz
FUNcube-1 21 Oct 04:34:27 04:39:03 78° 76° (ENE) 04:43:38 145.950 - 145.970 MHz USB
SO-50 21 Oct 04:34:31 04:38:52 32° 50° (NE) 04:43:15 436.795 FM
Oscar 11 21 Oct 04:49:29 04:53:15 29° 264° (W) 04:57:01 145.825 FM, Beacon 2401.500 USB
ISS 21 Oct 04:58:40 04:59:35 11° 232° (SW) 05:00:29 145.800 FM
HO-68 21 Oct 05:13:08 05:16:18 13° 271° (W) 05:19:29 435.675 MHz FM
KITSAT 1 21 Oct 05:20:17 05:28:12 62° 246° (WSW) 05:36:05 435.175 FM
ZACube-1 21 Oct 05:25:33 05:29:35 30° 264° (W) 05:33:37 437.345 MHz
RS-15 21 Oct 06:00:57 06:11:58 75° 303° (WNW) 06:22:57 29.354 - 29.394 USB, Beacon 29.352 USB
MaSat-1 21 Oct 06:09:27 06:12:31 19° 107° (ESE) 06:15:25 437.345 MHz
SO-50 21 Oct 06:15:06 06:19:23 32° 247° (WSW) 06:23:41 436.795 FM
UOSAT-12 21 Oct 06:22:52 06:27:11 34° 51° (NE) 06:31:25 437.025 FM, 437.400 FM
Oscar 19 21 Oct 07:43:59 07:47:47 21° 94° (E) 07:51:33 437.125 CW, 437.150 USB
MaSat-1 21 Oct 07:44:10 07:48:07 35° 299° (WNW) 07:51:44 437.345 MHz
UOSAT-12 21 Oct 08:03:14 08:07:12 27° 248° (WSW) 08:11:06 437.025 FM, 437.400 FM
RS-15 21 Oct 08:17:55 08:26:31 26° 331° (NNW) 08:35:13 29.354 - 29.394 USB, Beacon 29.352 USB
JAS-1B 21 Oct 08:27:34 08:33:53 49° 101° (E) 08:41:20 435.800 - 435.900 CW/SSB
Oscar 16 21 Oct 08:28:02 08:33:06 58° 101° (E) 08:38:07 437.025 USB, Beacon 2401.1428
Uribyol 2 21 Oct 08:40:01 08:44:37 31° 96° (E) 08:49:11 436.500 FM
Gurwin Techsat 1B 21 Oct 08:40:18 08:43:16 15° 91° (E) 08:46:14 435.225 FM
ITAMSAT 1 21 Oct 08:44:51 08:49:32 32° 97° (E) 08:54:10 435.822 SSB
TMSAT-1 21 Oct 08:54:25 08:57:23 15° 91° (E) 09:00:20 436.925 FM
AO-Echo 21 Oct 08:58:04 09:03:19 59° 101° (E) 09:08:33 ?
Oscar 19 21 Oct 09:22:28 09:27:18 44° 289° (WNW) 09:32:06 437.125 CW, 437.150 USB
AO-27 21 Oct 09:28:54 09:34:11 87° 104° (ESE) 09:39:24 436.795 MHz FM
AO-7 21 Oct 09:43:33 09:47:01 13° 89° (E) 09:50:27 29.400 - 29.500 MHz
Sapphire 21 Oct 10:02:34 10:06:11 19° 105° (ESE) 10:09:49 437.095 MHz 1200 baud AX-25 AFSK
Oscar 16 21 Oct 10:08:43 10:11:57 17° 297° (WNW) 10:15:11 437.025 USB, Beacon 2401.1428
Gurwin Techsat 1B 21 Oct 10:18:24 10:23:39 64° 287° (WNW) 10:28:53 435.225 FM
JAS-1B 21 Oct 10:18:56 10:24:20 29° 294° (WNW) 10:30:30 435.800 - 435.900 CW/SSB
Uribyol 2 21 Oct 10:19:29 10:24:01 31° 292° (WNW) 10:28:31 436.500 FM
PCSat 21 Oct 10:24:16 10:29:00 32° 109° (ESE) 10:33:46 145.825 MHz
ITAMSAT 1 21 Oct 10:24:25 10:28:55 30° 293° (WNW) 10:33:23 435.822 SSB
TMSAT-1 21 Oct 10:32:28 10:37:43 63° 287° (WNW) 10:42:57 436.925 FM
RS-15 21 Oct 10:37:42 10:44:31 18° 8° (N) 10:51:25 29.354 - 29.394 USB, Beacon 29.352 USB
AO-Echo 21 Oct 10:38:06 10:41:34 18° 297° (WNW) 10:45:03 ?
Uosat F 21 Oct 10:40:05 10:43:57 22° 94° (E) 10:47:47 435.120 FM
OPAL 21 Oct 11:09:58 11:15:06 67° 72° (ENE) 11:20:11 ?
AO-27 21 Oct 11:11:02 11:12:54 12° 301° (WNW) 11:14:47 436.795 MHz FM
JAS-2 21 Oct 11:21:31 11:27:16 22° 90° (E) 11:33:01 435.800 - 435.900 CW/SSB, 435.910 FM
AO-7 21 Oct 11:32:38 11:40:59 77° 106° (ESE) 11:49:19 29.400 - 29.500 MHz
Sapphire 21 Oct 11:43:48 11:49:06 57° 302° (WNW) 11:54:28 437.095 MHz 1200 baud AX-25 AFSK
PCSat 21 Oct 12:07:25 12:12:20 35° 306° (NW) 12:17:17 145.825 MHz
Uosat F 21 Oct 12:18:08 12:22:51 41° 290° (WNW) 12:27:33 435.120 FM
STRAND 1 21 Oct 12:47:44 12:52:43 55° 72° (ENE) 12:57:44 ?
RS-15 21 Oct 12:51:22 13:01:28 38° 41° (NE) 13:11:53 29.354 - 29.394 USB, Beacon 29.352 USB
OPAL 21 Oct 12:51:47 12:54:23 14° 267° (W) 12:56:58 ?
Hamsat 21 Oct 13:01:05 13:05:17 89° 284° (WNW) 13:09:30 145.90 MHz
JAS-2 21 Oct 13:05:06 13:12:47 75° 287° (WNW) 13:20:36 435.800 - 435.900 CW/SSB, 435.910 FM
AO-7 21 Oct 13:26:40 13:32:57 25° 305° (NW) 13:39:14 29.400 - 29.500 MHz
Sapphire 21 Oct 13:33:02 13:33:44 10° 322° (NW) 13:34:27 437.095 MHz 1200 baud AX-25 AFSK
SO-67 21 Oct 13:59:08 14:02:31 51° 99° (E) 14:05:52 435.3500 MHz FM
Saudisat 1A 21 Oct 14:04:13 14:07:35 22° 112° (ESE) 14:10:58 436.775 MHz
